CEB504 RPVI-RPLL

Flight info

Callsign CEB504
Flight time 0h 46m
Altitude 30000
Route LAMBO1N LAMBO B472 IBAGO IBAGO3R
Aircraft A339/H-SADE1E2E3GHIJ3J5M1P2RWXY/LB2D1

Departure

Time 2026-04-20 04:38
Airport Iloilo International Airport (RPVI)

Arrival

Time 2026-04-20 05:25
Airport Ninoy Aquino International Airport (RPLL)
Time Latitude Longitude Altitude Speed Heading
2026-04-20 04:12 10.83117 122.49640 183 ft 0 kts 110°
2026-04-20 04:26 10.83120 122.49633 183 ft 2 kts 110°
2026-04-20 04:27 10.83125 122.49618 183 ft 2 kts 110°
2026-04-20 04:27 10.83131 122.49605 184 ft 2 kts 111°
2026-04-20 04:27 10.83136 122.49590 184 ft 2 kts 111°
2026-04-20 04:27 10.83143 122.49577 184 ft 2 kts 151°
2026-04-20 04:28 10.83157 122.49574 184 ft 1 kts 193°
2026-04-20 04:28 10.83163 122.49576 184 ft 1 kts 201°
2026-04-20 04:28 10.83165 122.49577 184 ft 0 kts 200°
2026-04-20 04:31 10.83156 122.49573 184 ft 2 kts 200°
2026-04-20 04:32 10.83128 122.49563 184 ft 5 kts 200°
2026-04-20 04:32 10.83084 122.49547 184 ft 7 kts 199°
2026-04-20 04:32 10.83024 122.49527 184 ft 9 kts 198°
2026-04-20 04:32 10.82995 122.49514 184 ft 1 kts 235°
2026-04-20 04:33 10.82999 122.49502 184 ft 3 kts 302°
2026-04-20 04:33 10.83018 122.49480 184 ft 4 kts 315°
2026-04-20 04:33 10.83040 122.49445 184 ft 7 kts 292°
2026-04-20 04:33 10.83060 122.49392 184 ft 8 kts 290°
2026-04-20 04:34 10.83083 122.49328 184 ft 10 kts 290°
2026-04-20 04:34 10.83078 122.49264 184 ft 9 kts 233°
2026-04-20 04:34 10.83012 122.49229 184 ft 11 kts 200°
2026-04-20 04:34 10.82931 122.49199 184 ft 12 kts 200°
2026-04-20 04:35 10.82842 122.49166 184 ft 14 kts 200°
2026-04-20 04:35 10.82746 122.49131 184 ft 15 kts 200°
2026-04-20 04:35 10.82644 122.49093 184 ft 15 kts 200°
2026-04-20 04:35 10.82538 122.49053 184 ft 16 kts 200°
2026-04-20 04:36 10.82339 122.48984 184 ft 13 kts 182°
2026-04-20 04:36 10.82262 122.48979 184 ft 5 kts 210°
2026-04-20 04:36 10.82261 122.48956 184 ft 4 kts 333°
2026-04-20 04:37 10.82292 122.48963 184 ft 3 kts 19°
2026-04-20 04:37 10.82297 122.48965 184 ft 0 kts 19°
2026-04-20 04:37 10.82478 122.49031 184 ft 63 kts 20°
2026-04-20 04:38 10.83105 122.49262 184 ft 125 kts 19°
2026-04-20 04:38 10.84067 122.49623 337 ft 160 kts 21°
2026-04-20 04:38 10.85080 122.50042 978 ft 157 kts 21°
2026-04-20 04:38 10.86092 122.50445 1631 ft 156 kts 19°
2026-04-20 04:39 10.87114 122.50801 2124 ft 161 kts 19°
2026-04-20 04:39 10.88230 122.51191 2421 ft 177 kts 19°
2026-04-20 04:39 10.89460 122.51630 2728 ft 194 kts 20°
2026-04-20 04:39 10.90785 122.52115 3048 ft 212 kts 20°
2026-04-20 04:40 10.92265 122.52618 3396 ft 231 kts 11°
2026-04-20 04:40 10.93909 122.52476 3732 ft 254 kts 339°
2026-04-20 04:40 10.95423 122.51447 4226 ft 269 kts 323°
2026-04-20 04:40 10.96900 122.50257 4925 ft 274 kts 324°
2026-04-20 04:41 10.98416 122.49056 5632 ft 279 kts 324°
2026-04-20 04:41 10.99965 122.47840 6324 ft 284 kts 324°
2026-04-20 04:41 11.01534 122.46612 7050 ft 287 kts 324°
2026-04-20 04:41 11.03128 122.45364 7792 ft 290 kts 324°
2026-04-20 04:42 11.04740 122.44103 8521 ft 294 kts 324°
2026-04-20 04:42 11.06359 122.42837 9214 ft 298 kts 324°
2026-04-20 04:42 11.08005 122.41550 9912 ft 302 kts 324°
2026-04-20 04:42 11.09694 122.40230 10517 ft 309 kts 324°
2026-04-20 04:43 11.11448 122.38860 10880 ft 326 kts 324°
2026-04-20 04:43 11.13289 122.37422 11236 ft 342 kts 324°
2026-04-20 04:43 11.15231 122.35976 11852 ft 348 kts 328°
2026-04-20 04:43 11.17315 122.34721 12560 ft 349 kts 334°
2026-04-20 04:44 11.19519 122.33675 13237 ft 351 kts 338°
2026-04-20 04:44 11.21778 122.32696 13877 ft 355 kts 338°
2026-04-20 04:44 11.24088 122.31705 14507 ft 359 kts 338°
2026-04-20 04:44 11.26386 122.30718 15118 ft 363 kts 338°
2026-04-20 04:45 11.28724 122.29713 15724 ft 366 kts 338°
2026-04-20 04:45 11.31102 122.28686 16308 ft 370 kts 338°
2026-04-20 04:45 11.33466 122.27663 16859 ft 375 kts 338°
2026-04-20 04:45 11.35892 122.26614 17380 ft 378 kts 338°
2026-04-20 04:46 11.38337 122.25555 17983 ft 381 kts 338°
2026-04-20 04:46 11.40771 122.24502 18584 ft 385 kts 338°
2026-04-20 04:46 11.43262 122.23422 19105 ft 388 kts 338°
2026-04-20 04:46 11.45738 122.22348 19651 ft 391 kts 338°
2026-04-20 04:47 11.48269 122.21251 20176 ft 395 kts 337°
2026-04-20 04:47 11.50788 122.20159 20738 ft 397 kts 337°
2026-04-20 04:47 11.53359 122.19044 21278 ft 400 kts 337°
2026-04-20 04:47 11.55932 122.17926 21792 ft 403 kts 337°
2026-04-20 04:48 11.58518 122.16803 22378 ft 403 kts 337°
2026-04-20 04:48 11.61097 122.15683 23056 ft 401 kts 337°
2026-04-20 04:48 11.63634 122.14581 23714 ft 399 kts 337°
2026-04-20 04:48 11.66185 122.13474 24362 ft 397 kts 336°
2026-04-20 04:49 11.68725 122.12371 24988 ft 395 kts 336°
2026-04-20 04:49 11.71262 122.11269 25622 ft 393 kts 336°
2026-04-20 04:49 11.73758 122.10183 26234 ft 391 kts 336°
2026-04-20 04:49 11.76259 122.09095 26785 ft 390 kts 336°
2026-04-20 04:50 11.78761 122.08006 27267 ft 392 kts 335°
2026-04-20 04:50 11.81276 122.06912 27707 ft 394 kts 335°
2026-04-20 04:50 11.83827 122.05802 27923 ft 396 kts 335°
2026-04-20 04:50 11.86347 122.04704 27932 ft 396 kts 335°
2026-04-20 04:51 11.88907 122.03589 27929 ft 396 kts 335°
2026-04-20 04:51 11.91424 122.02491 27914 ft 396 kts 335°
2026-04-20 04:51 11.93995 122.01371 27908 ft 395 kts 335°
2026-04-20 04:51 11.96503 122.00278 27904 ft 395 kts 335°
2026-04-20 04:52 11.99074 121.99159 27903 ft 395 kts 335°
2026-04-20 04:52 12.01600 121.98058 27902 ft 395 kts 335°
2026-04-20 04:52 12.04134 121.96954 27901 ft 395 kts 335°
2026-04-20 04:52 12.06678 121.95844 27901 ft 395 kts 335°
2026-04-20 04:53 12.09215 121.94737 27903 ft 396 kts 335°
2026-04-20 04:53 12.11750 121.93632 27902 ft 396 kts 335°
2026-04-20 04:53 12.14301 121.92519 27903 ft 396 kts 335°
2026-04-20 04:53 12.16835 121.91413 27904 ft 396 kts 335°
2026-04-20 04:54 12.19371 121.90306 27904 ft 395 kts 335°
2026-04-20 04:54 12.21884 121.89209 27904 ft 395 kts 335°
2026-04-20 04:54 12.24438 121.88094 27904 ft 395 kts 335°
2026-04-20 04:54 12.26963 121.86990 27905 ft 395 kts 335°
2026-04-20 04:55 12.29478 121.85890 27909 ft 395 kts 335°
2026-04-20 04:55 12.32038 121.84770 27912 ft 395 kts 335°
2026-04-20 04:55 12.34562 121.83666 27915 ft 395 kts 335°
2026-04-20 04:55 12.37092 121.82561 27916 ft 396 kts 335°
2026-04-20 04:56 12.39629 121.81455 27917 ft 396 kts 335°
2026-04-20 04:56 12.42176 121.80344 27919 ft 396 kts 335°
2026-04-20 04:56 12.44717 121.79234 27920 ft 396 kts 335°
2026-04-20 04:56 12.47247 121.78127 27921 ft 395 kts 335°
2026-04-20 04:57 12.49791 121.77013 27920 ft 396 kts 335°
2026-04-20 04:57 12.52302 121.75915 27920 ft 396 kts 335°
2026-04-20 04:57 12.54852 121.74799 27920 ft 397 kts 335°
2026-04-20 04:57 12.57414 121.73676 27920 ft 397 kts 335°
2026-04-20 04:58 12.59928 121.72573 27919 ft 397 kts 335°
2026-04-20 04:58 12.62489 121.71452 27918 ft 397 kts 335°
2026-04-20 04:58 12.65035 121.70335 27916 ft 397 kts 335°
2026-04-20 04:58 12.67586 121.69216 27917 ft 398 kts 335°
2026-04-20 04:59 12.70131 121.68099 27916 ft 397 kts 335°
2026-04-20 04:59 12.72684 121.66979 27917 ft 397 kts 335°
2026-04-20 04:59 12.75259 121.65848 27917 ft 397 kts 335°
2026-04-20 04:59 12.77822 121.64724 27918 ft 397 kts 335°
2026-04-20 05:00 12.80370 121.63605 27832 ft 398 kts 335°
2026-04-20 05:00 12.82953 121.62470 27390 ft 400 kts 335°
2026-04-20 05:00 12.85516 121.61342 26923 ft 401 kts 335°
2026-04-20 05:00 12.88094 121.60210 26448 ft 401 kts 335°
2026-04-20 05:01 12.90643 121.59090 25965 ft 402 kts 336°
2026-04-20 05:01 12.93219 121.57955 25485 ft 403 kts 336°
2026-04-20 05:01 12.95794 121.56823 24998 ft 403 kts 336°
2026-04-20 05:01 12.98395 121.55679 24510 ft 404 kts 336°
2026-04-20 05:02 13.00950 121.54555 24020 ft 405 kts 336°
2026-04-20 05:02 13.03555 121.53410 23529 ft 405 kts 336°
2026-04-20 05:02 13.06145 121.52270 23022 ft 406 kts 337°
2026-04-20 05:02 13.08754 121.51121 22518 ft 407 kts 337°
2026-04-20 05:03 13.11345 121.49980 22013 ft 408 kts 337°
2026-04-20 05:03 13.13979 121.48821 21499 ft 408 kts 337°
2026-04-20 05:03 13.16597 121.47671 21079 ft 406 kts 337°
2026-04-20 05:03 13.19186 121.46531 20713 ft 403 kts 337°
2026-04-20 05:04 13.21761 121.45396 20317 ft 400 kts 337°
2026-04-20 05:04 13.24314 121.44270 19958 ft 396 kts 337°
2026-04-20 05:04 13.26822 121.43166 19562 ft 394 kts 338°
2026-04-20 05:04 13.29340 121.42055 19180 ft 391 kts 338°
2026-04-20 05:05 13.31840 121.40953 18802 ft 388 kts 338°
2026-04-20 05:05 13.34317 121.39860 18451 ft 385 kts 338°
2026-04-20 05:05 13.36752 121.38786 18060 ft 382 kts 337°
2026-04-20 05:05 13.39200 121.37703 17704 ft 379 kts 337°
2026-04-20 05:06 13.41623 121.36633 17334 ft 376 kts 338°
2026-04-20 05:06 13.44021 121.35571 16987 ft 374 kts 338°
2026-04-20 05:06 13.46400 121.34519 16612 ft 371 kts 337°
2026-04-20 05:06 13.48755 121.33476 16511 ft 360 kts 338°
2026-04-20 05:07 13.50998 121.32484 16505 ft 348 kts 338°
2026-04-20 05:07 13.53179 121.31467 16411 ft 338 kts 332°
2026-04-20 05:07 13.55087 121.30105 16280 ft 330 kts 320°
2026-04-20 05:07 13.56718 121.28397 15956 ft 329 kts 313°
2026-04-20 05:08 13.58219 121.26634 15672 ft 327 kts 311°
2026-04-20 05:08 13.59695 121.24873 15358 ft 326 kts 312°
2026-04-20 05:08 13.61172 121.23121 15081 ft 324 kts 312°
2026-04-20 05:08 13.62647 121.21379 14731 ft 323 kts 312°
2026-04-20 05:09 13.64132 121.19634 14410 ft 320 kts 313°
2026-04-20 05:09 13.65594 121.17919 14143 ft 318 kts 313°
2026-04-20 05:09 13.67057 121.16206 13874 ft 317 kts 313°
2026-04-20 05:09 13.68506 121.14508 13551 ft 316 kts 313°
2026-04-20 05:10 13.69942 121.12826 13263 ft 314 kts 313°
2026-04-20 05:10 13.71387 121.11134 12972 ft 313 kts 313°
2026-04-20 05:10 13.72818 121.09460 12679 ft 311 kts 313°
2026-04-20 05:10 13.74262 121.07770 12379 ft 310 kts 313°
2026-04-20 05:11 13.75668 121.06122 12136 ft 309 kts 313°
2026-04-20 05:11 13.77088 121.04458 11829 ft 308 kts 313°
2026-04-20 05:11 13.78509 121.02794 11541 ft 307 kts 313°
2026-04-20 05:11 13.79905 121.01159 11242 ft 305 kts 313°
2026-04-20 05:12 13.81329 120.99524 10925 ft 303 kts 318°
2026-04-20 05:12 13.83060 120.98371 10665 ft 297 kts 342°
2026-04-20 05:12 13.85060 120.97958 10371 ft 293 kts 356°
2026-04-20 05:12 13.87109 120.97763 10111 ft 291 kts 357°
2026-04-20 05:13 13.89118 120.97579 9834 ft 291 kts 356°
2026-04-20 05:13 13.91148 120.97382 9526 ft 290 kts 356°
2026-04-20 05:13 13.93141 120.97180 9238 ft 289 kts 356°
2026-04-20 05:13 13.95139 120.96972 8979 ft 288 kts 356°
2026-04-20 05:14 13.97127 120.96763 8796 ft 283 kts 355°
2026-04-20 05:14 13.99100 120.96555 8526 ft 282 kts 355°
2026-04-20 05:14 14.01040 120.96351 8270 ft 281 kts 355°
2026-04-20 05:14 14.02990 120.96146 8006 ft 280 kts 355°
2026-04-20 05:15 14.04943 120.95937 7746 ft 280 kts 355°
2026-04-20 05:15 14.06859 120.95736 7465 ft 279 kts 355°
2026-04-20 05:15 14.08818 120.95528 7186 ft 278 kts 355°
2026-04-20 05:15 14.10742 120.95323 6931 ft 277 kts 355°
2026-04-20 05:16 14.12674 120.95119 6682 ft 277 kts 355°
2026-04-20 05:16 14.14579 120.94920 6468 ft 275 kts 355°
2026-04-20 05:16 14.16482 120.94689 6256 ft 272 kts 349°
2026-04-20 05:16 14.18263 120.94068 6084 ft 269 kts 335°
2026-04-20 05:17 14.19913 120.93135 5921 ft 266 kts 332°
2026-04-20 05:17 14.21486 120.92184 5751 ft 263 kts 331°
2026-04-20 05:17 14.23061 120.91230 5632 ft 259 kts 331°
2026-04-20 05:17 14.24629 120.90289 5460 ft 255 kts 331°
2026-04-20 05:18 14.26147 120.89387 5323 ft 251 kts 331°
2026-04-20 05:18 14.27663 120.88488 5189 ft 247 kts 332°
2026-04-20 05:18 14.29154 120.87617 5035 ft 243 kts 332°
2026-04-20 05:18 14.30621 120.86768 4898 ft 240 kts 332°
2026-04-20 05:19 14.32066 120.85933 4786 ft 236 kts 332°
2026-04-20 05:19 14.33506 120.85101 4636 ft 233 kts 332°
2026-04-20 05:19 14.34909 120.84287 4474 ft 230 kts 332°
2026-04-20 05:19 14.36288 120.83489 4310 ft 226 kts 332°
2026-04-20 05:20 14.37669 120.82700 4146 ft 222 kts 337°
2026-04-20 05:20 14.39136 120.82455 3958 ft 214 kts 15°
2026-04-20 05:20 14.40386 120.83199 3801 ft 206 kts 49°
2026-04-20 05:20 14.41196 120.84383 3632 ft 200 kts 60°
2026-04-20 05:21 14.41859 120.85634 3456 ft 195 kts 63°
2026-04-20 05:21 14.42490 120.86851 3283 ft 191 kts 63°
2026-04-20 05:21 14.43131 120.88049 3093 ft 187 kts 62°
2026-04-20 05:21 14.43782 120.89243 2625 ft 200 kts 62°
2026-04-20 05:22 14.44487 120.90517 2065 ft 212 kts 61°
2026-04-20 05:22 14.45223 120.91818 1628 ft 204 kts 62°
2026-04-20 05:22 14.45904 120.93028 1522 ft 182 kts 62°
2026-04-20 05:22 14.46513 120.94122 1327 ft 173 kts 62°
2026-04-20 05:23 14.47102 120.95185 1109 ft 168 kts 62°
2026-04-20 05:23 14.47676 120.96219 906 ft 161 kts 62°
2026-04-20 05:23 14.48221 120.97199 707 ft 156 kts 63°
2026-04-20 05:23 14.48750 120.98152 524 ft 150 kts 62°
2026-04-20 05:24 14.49263 120.99077 330 ft 146 kts 63°
2026-04-20 05:24 14.49773 120.99985 161 ft 145 kts 63°
2026-04-20 05:24 14.50251 121.00851 92 ft 128 kts 61°
2026-04-20 05:24 14.50618 121.01513 91 ft 81 kts 60°
2026-04-20 05:25 14.50808 121.01856 91 ft 30 kts 60°
2026-04-20 05:25 14.50882 121.01988 91 ft 11 kts 54°
2026-04-20 05:25 14.50934 121.02010 91 ft 6 kts 352°
2026-04-20 05:25 14.50976 121.01981 91 ft 8 kts 319°
2026-04-20 05:26 14.51027 121.01977 91 ft 8 kts 39°
2026-04-20 05:26 14.51050 121.01990 91 ft 2 kts 359°
2026-04-20 05:26 14.51083 121.01973 91 ft 11 kts 320°
2026-04-20 05:26 14.51153 121.01904 91 ft 14 kts 315°
2026-04-20 05:27 14.51226 121.01826 91 ft 15 kts 315°
2026-04-20 05:27 14.51306 121.01746 91 ft 16 kts 314°
2026-04-20 05:27 14.51387 121.01660 91 ft 17 kts 313°
2026-04-20 05:27 14.51472 121.01572 91 ft 17 kts 314°
2026-04-20 05:28 14.51548 121.01494 91 ft 8 kts 315°
2026-04-20 05:28 14.51581 121.01462 91 ft 4 kts 331°
2026-04-20 05:28 14.51615 121.01473 91 ft 6 kts 42°
2026-04-20 05:28 14.51642 121.01500 91 ft 4 kts 43°
2026-04-20 05:29 14.51655 121.01511 91 ft 0 kts 45°